FLOCK 3K-11 (43904 NORAD) Tracking and Keplerian Element Data

This shows tracking and keplerian element data for the satellite.

Feedback or suggestion? Click here.




ElementValue
Catalog43904
NameFLOCK 3K-11
Epoch Orbit392
Epoch Day21.82469973
Epoch Year2019
RAAN291.0338
Inclination97.2999
Eccentricity0.0023267
Argument of Perigee149.904
Mean Anonmoly210.354
Mean Motion15.23799976
Decay Rate2.638E-05
L11 43904U 18111AE 19021.82469973 .00002638 00000-0 11170-3 0 9995
L22 43904 97.2999 291.0338 0023267 149.9040 210.3540 15.23799976 3927

Live tracking and technical data element details for FLOCK 3K-11 (NORAD 43904). FLOCK 3K-11 can be tracked NOW for your location showing map with azimuth and elevation plus other details from your city location.

Track the satellite on the map from your city or location and see movement details for azimuth, elevation, latitude, longitude, range, height, and movement on the map or in text.







IsCatalogInMostPopularTable: catalog: 43904, numindb: 22
Update: records affected: 1



GetName: 43904 FLOCK 3K-11

Hit Count: updated at: Wed, 23 Jan 2019 02:40:26 GMT